Location: Kershaw
(34.5481°N, 80.5823°W)
Time: 00:30:15
(UTC+00:00)

Altair - Pass Details

Date: 10 October 2022
Orbit: 1501 x 1682 km, 47.2° (Epoch: 05 December)

Event Time Altitude Azimuth Distance (km) Brightness Sun altitude
Exits shadow 09:39:37 30° 286° (WNW) 2,555 8.1 -22.2°
Maximum altitude 09:44:11 48° 341° (NNW) 2,016 8.0 -21.3°
Drops below altitude 10° 09:53:46 10° 54° (NE) 3,904 10.5 -19.3°
Sets 09:57:10 0° 61° (ENE) 4,910 11.3 -18.6°
